Location: Unspecified
(0.0000°N, 0.0000°E)
Time: 12:10:59
(UTC+00:00)

Envisat - Pass Details

Date: 04 December 2019
Orbit: 764 x 766 km, 98.1° (Epoch: 11 December)

Event Time Altitude Azimuth Distance (km) Brightness Sun altitude
Rises 05:16:40 0° 50° (NE) 3,217 6.6 -7.7°
Reaches altitude 10° 05:20:29 10° 80° (E) 2,295 6.5 -6.8°
Maximum altitude 05:22:26 12° 103° (ESE) 2,146 6.9 -6.4°
Drops below altitude 10° 05:24:23 10° 126° (SE) 2,299 7.1 -5.9°
Sets 05:28:11 0° 155° (SSE) 3,229 7.0 -5.0°
